NADEZHDA 7

Satellite information

Favourite Embed

Satellite Type and Status

PAYLOADIN ORBIT

Key statistics

Satellite NADEZHDA 7 at a glance.

Uptime

8427

Days in orbit

Revolutions

≈ 13.7

Per day

Orbit

LEO

Low Earth Orbit

Inclination

82.9

Latest

Satellite identification and parameters

Extended collection of information and parameters for NADEZHDA 7.

Object identification

Identified? True

Debris? False

Object name: NADEZHDA 7

International designator: 2002-046A

Object number (NORAD): 27534

Object ID (CCSDS): 27534

Country: COMMONWEALTH OF INDEPENDENT STATES (CIS)

Current information (Y/N): Y

RCS size: LARGE

Orbital parameters

Period: 104.885 minutes

Inclination: 82.9343 deg

SMA: 7367.187 km

Apoapsis: 1014.749 km

Periapsis: 963.355 km

RAAN: 147.0404 deg

Eccentricy: 0.0034881

Argument of periapsis: 276.1355 deg

Mean anomaly: 145.5497 deg

Mean motion: 13.72935772 rev/day

Mean motion (dot): 0.00000102 rev/day2

B* drag term: 0.000094707 1/REarth

Two-line elements (TLE)

Creation date: Oct. 22, 2025, 12:16 a.m.

Reference frame: TEME

Reference center: EARTH

Epoch: Oct. 21, 2025, 4:10 p.m. UTC

TLE line 0: 0 NADEZHDA 7

TLE line 1: 1 27534U 02046A 25294.67396566 .00000102 00000-0 94707-4 0 9997

TLE line 2: 2 27534 82.9343 147.0404 0034881 276.1355 145.5497 13.72935772155838

Live tracking on map

Real-time ground track for satellite NADEZHDA 7.

In-orbit conjunctions

A list of the most updated potential collisions computed for object NADEZHDA 7.

Target Orbit TCA Probability of collision Miss distance Type
FENGYUN 1C DEB SSO 2025-06-11 01:51:07 0.0002212829 612.0 (m) DEBRIS
DELTA 1 DEB SSO 2024-11-02 13:10:24 0.0003102808 132.0 (m) DEBRIS
COSMOS 2251 DEB LEO 2024-09-14 14:08:50 0.00158889 63.0 (m) DEBRIS

Associated space launch

Nadezhda 7, also called Nadezhda -M, was a Russian navigational satellite. It was to participate in the international search and rescue (SAR) network known as COSPAS-SARSAT, for ships at sea.

NADEZHDA 7 was lifted into orbit during the mission ‘Kosmos-3M | Nadezhda-M’, on board a Kosmos-3M space rocket.

The launch took place on Sept. 26, 2002, 2:27 p.m. from 132/1 (132L).

For more information about the launch, click the button.

Launch to space Kosmos-3M | Nadezhda-M
Kosmos-3M | Nadezhda-M

Agency: N/A

Status: Launch Successful

Launch date: Sept. 26, 2002, 2:27 p.m. UTC

Rocket: Kosmos-3M

Launch pad: 132/1 (132L)

Location: Plesetsk Cosmodrome, Russian Federation

...

Latest news about this satellite

There are no fresh news available about this satellite. Check back as we update our databases every day.


Newsletter sign-up

Weekly statistics, charts and insights to help you stay on top of the space industry.